Crockett, TX

8:44 AM CST on November 20, 2019 (GMT -0600)
Crockett

Weather History for KDKR - October, 2019

Change the Weather History Date:

Tuesday, October 15, 2019

  Actual Average (WUND) Record (WUND)
Temperature  
Mean Temperature 78 °F -  
Max Temperature 84 °F - - (-1)
Min Temperature 71 °F - - (-1)
Cooling Degree Days 12    
Growing Degree Days 28 (Base 50)    
Moisture  
Dew Point 73 °F    
Average Humidity 93    
Maximum Humidity 100    
Minimum Humidity 70    
Precipitation  
Precipitation 0.00 in - - ()
Sea Level Pressure  
Sea Level Pressure 29.94 in    
Wind  
Wind Speed 4 mph ()    
Max Wind Speed 16 mph    
Max Gust Speed 17 mph    
Visibility 6.4 miles    
Events Thunderstorm    
Averages and records for this station are not official NWS values.
T = Trace of Precipitation, MM = Missing Value Source: Averaged Metar Reports

Daily Weather History Graph

Daily Weather History Graph

Search for Another Location

Airport or City:

Astronomy

Oct. 15, 2019 Rise Set
Actual Time 7:24 AM CDT 6:49 PM CDT
Civil Twilight 6:59 AM CDT 7:14 PM CDT
Nautical Twilight 6:31 AM CDT 7:42 PM CDT
Astronomical Twilight 6:03 AM CDT 8:10 PM CDT
Moon 8:15 PM CDT (10/15) 8:52 AM CDT (10/15)
Length of Visible Light 12h 14m
Length of Day
11h 25m
Full, 97% of the Moon is Illuminated
Oct 15
Full
Oct 21
Last Quarter
Oct 27
New
Nov 4
First Quarter
Nov 12
Full

Hourly Weather History & Observations

Time (CDT) Temp. Heat Index Dew Point Humidity Pressure Visibility Wind Dir Wind Speed Gust Speed Precip Events Conditions
12:10 AM 71.6 °F - 69.8 °F 94% 30.00 in - SE 4.6 mph - N/A   Unknown
12:30 AM 71.6 °F - 69.8 °F 94% 29.99 in 10.0 mi SSE 4.6 mph - N/A   Overcast
12:50 AM 71.6 °F - 69.8 °F 94% 29.99 in 8.0 mi SSE 6.9 mph - N/A   Overcast
1:10 AM 71.6 °F - 69.8 °F 94% 29.98 in - SSE 6.9 mph - N/A   Unknown
1:30 AM 71.6 °F - 69.8 °F 94% 29.98 in 1.8 mi SE 6.9 mph - N/A   Overcast
1:50 AM 71.6 °F - 69.8 °F 94% 29.98 in 1.5 mi Calm Calm - N/A   Overcast
2:10 AM - - - N/A% 29.98 in - Calm Calm - N/A   Unknown
2:30 AM 71.6 °F - 71.6 °F 100% 29.98 in 1.8 mi SSE 4.6 mph - N/A   Overcast
2:50 AM 71.6 °F - 71.6 °F 100% 29.97 in 2.5 mi South 4.6 mph - N/A   Overcast
3:10 AM - - - N/A% 29.96 in - SSE 5.8 mph - N/A   Unknown
3:30 AM 71.6 °F - 71.6 °F 100% 29.97 in 2.0 mi SSE 4.6 mph - N/A   Overcast
3:50 AM 71.6 °F - 71.6 °F 100% 29.96 in 1.5 mi SSE 4.6 mph - N/A   Overcast
4:10 AM 71.6 °F - 71.6 °F 100% 29.96 in - SSE 5.8 mph - N/A   Unknown
4:30 AM 71.6 °F - 71.6 °F 100% 29.96 in 1.0 mi South 6.9 mph - N/A   Overcast
4:50 AM 71.6 °F - 71.6 °F 100% 29.96 in 0.8 mi South 6.9 mph - N/A   Overcast
5:10 AM 71.6 °F - 71.6 °F 100% 29.97 in - South 6.9 mph - N/A   Unknown
5:30 AM 71.6 °F - 71.6 °F 100% 29.96 in 0.8 mi Calm Calm - N/A   Overcast
5:50 AM 73.4 °F - 71.6 °F 94% 29.97 in 1.0 mi South 5.8 mph - N/A   Overcast
6:10 AM 73.4 °F - 71.6 °F 94% 29.97 in - SSE 4.6 mph - N/A   Unknown
6:30 AM 73.4 °F - 73.4 °F 100% 29.97 in 1.8 mi SSE 4.6 mph - N/A   Overcast
6:50 AM 73.4 °F - 73.4 °F 100% 29.98 in 1.5 mi Calm Calm - N/A   Overcast
7:10 AM - - - N/A% 29.97 in - South 4.6 mph - N/A   Unknown
7:30 AM 73.4 °F - 73.4 °F 100% 29.97 in 3.0 mi Calm Calm - N/A   Overcast
7:50 AM 73.4 °F - 73.4 °F 100% 29.97 in 2.0 mi South 4.6 mph - N/A   Overcast
8:30 AM 73.4 °F - 73.4 °F 100% 29.98 in 1.8 mi SSW 4.6 mph - N/A   Overcast
8:50 AM 73.4 °F - 73.4 °F 100% 29.98 in 3.0 mi South 3.5 mph - N/A   Overcast
9:10 AM 75.2 °F - 73.4 °F 94% 29.99 in - South 4.6 mph - N/A   Unknown
9:30 AM 75.2 °F - 75.2 °F 100% 29.99 in 3.0 mi South 3.5 mph - N/A   Overcast
9:50 AM 75.2 °F - 75.2 °F 100% 29.98 in 5.0 mi South 5.8 mph - N/A   Mostly Cloudy
10:10 AM 75.2 °F - 75.2 °F 100% 29.98 in - SSW 3.5 mph - N/A   Unknown
10:30 AM 75.2 °F - 75.2 °F 100% 29.97 in 7.0 mi South 5.8 mph - N/A   Overcast
10:50 AM 75.2 °F - 75.2 °F 100% 29.97 in 7.0 mi South 5.8 mph - N/A   Overcast
11:10 AM - - - N/A% 29.96 in - South 6.9 mph - N/A   Unknown
11:30 AM 77.0 °F - 75.2 °F 94% 29.96 in 10.0 mi SSW 5.8 mph - N/A   Overcast
11:50 AM 77.0 °F - 75.2 °F 94% 29.96 in 5.0 mi SSW 6.9 mph - N/A   Mostly Cloudy
12:10 PM 78.8 °F - 75.2 °F 89% 29.96 in - SW 4.6 mph - N/A   Unknown
12:35 PM 80.6 °F 86.2 °F 75.2 °F 84% 29.96 in 10.0 mi SW 5.8 mph - N/A   Overcast
12:50 PM 80.6 °F 86.2 °F 75.2 °F 84% 29.96 in 10.0 mi SW 9.2 mph - N/A   Mostly Cloudy
1:10 PM 82.4 °F 89.5 °F 75.2 °F 79% 29.96 in - WSW 10.4 mph - N/A   Unknown
1:30 PM 80.6 °F 86.2 °F 75.2 °F 84% 29.94 in 10.0 mi SW 8.1 mph - N/A   Unknown
1:50 PM 80.6 °F 86.2 °F 75.2 °F 84% 29.93 in 9.0 mi SW 6.9 mph - N/A   Scattered Clouds
2:10 PM 80.6 °F 87.1 °F 77.0 °F 89% 29.92 in - SW 5.8 mph - N/A   Unknown
2:30 PM 82.4 °F 89.5 °F 75.2 °F 79% 29.91 in 10.0 mi SW 12.7 mph - N/A   Scattered Clouds
2:50 PM 84.2 °F 92.3 °F 75.2 °F 74% 29.90 in 10.0 mi WSW 16.1 mph - N/A   Partly Cloudy
3:10 PM 84.2 °F 90.9 °F 73.4 °F 70% 29.89 in - WSW 11.5 mph - N/A   Unknown
3:30 PM 82.4 °F 88.2 °F 73.4 °F 74% 29.89 in 10.0 mi WSW 11.5 mph 17.3 mph N/A   Mostly Cloudy
3:50 PM 84.2 °F 90.9 °F 73.4 °F 70% 29.88 in 10.0 mi West 9.2 mph - N/A   Partly Cloudy
4:10 PM - - - N/A% 29.87 in - West 9.2 mph - N/A   Unknown
4:30 PM 82.4 °F 87.2 °F 71.6 °F 70% 29.86 in 10.0 mi West 6.9 mph - N/A   Clear
4:50 PM 82.4 °F 87.2 °F 71.6 °F 70% 29.86 in 10.0 mi WSW 4.6 mph - N/A   Clear
5:10 PM - - - N/A% 29.86 in - Calm Calm - N/A   Unknown
5:30 PM 80.6 °F 85.4 °F 73.4 °F 79% 29.86 in 10.0 mi Calm Calm - N/A   Clear
5:50 PM 78.8 °F - 73.4 °F 83% 29.87 in 10.0 mi Calm Calm - N/A   Clear
6:10 PM - - - N/A% 29.87 in - Calm Calm - N/A   Unknown
6:30 PM 77.0 °F - 75.2 °F 94% 29.88 in 10.0 mi Calm Calm - N/A   Mostly Cloudy
6:50 PM 77.0 °F - 75.2 °F 94% 29.87 in 10.0 mi Calm Calm - N/A   Mostly Cloudy
7:10 PM - - - N/A% 29.87 in - Calm Calm - N/A   Unknown
7:30 PM 75.2 °F - 73.4 °F 94% 29.89 in 10.0 mi Calm Calm - N/A   Clear
7:50 PM 75.2 °F - 73.4 °F 94% 29.90 in 10.0 mi Calm Calm - N/A   Clear
8:10 PM - - - N/A% 29.89 in - Calm Calm - N/A   Unknown
8:30 PM 73.4 °F - 73.4 °F 100% 29.90 in 9.0 mi Calm Calm - N/A   Clear
8:50 PM 73.4 °F - 73.4 °F 100% 29.89 in 9.0 mi Calm Calm - N/A   Clear
9:10 PM 75.2 °F - 73.4 °F 94% 29.90 in - Calm Calm - N/A   Unknown
9:30 PM 73.4 °F - 73.4 °F 100% 29.91 in 7.0 mi Calm Calm - N/A   Clear
9:50 PM 73.4 °F - 73.4 °F 100% 29.91 in 5.0 mi Calm Calm - N/A   Clear
10:10 PM 73.4 °F - 73.4 °F 100% 29.91 in - Calm Calm - N/A   Unknown
10:30 PM 73.4 °F - 73.4 °F 100% 29.92 in 10.0 mi Calm Calm - N/A   Overcast
11:10 PM - - - N/A% 29.94 in - Calm Calm - N/A   Unknown
11:30 PM 73.4 °F - 71.6 °F 94% 29.94 in 10.0 mi Calm Calm - N/A Thunderstorm Unknown
11:50 PM 73.4 °F - 71.6 °F 94% 29.94 in 10.0 mi Calm Calm - N/A   Mostly Cloudy